Theta_e
309 309 307 308 309 309 309 309 308 307 310 311 307 308 309 306 306 307 307 308 308 306
309 309 308 307 309 310 310 310 310 310 309 310 306 308 310 306 306 309 308 307 306 304
310 310 308 308 308 309 309 310 310 309 309 306 306 308 309 307 307 307 307 306 304 304
309 309 309 307 308 310 309 309 309 308 309 308 305 308 306 307 307 305 304 303 302 303
308 308 308 308 308 310 310 310 310 308 309 308 306 305 305 306 306 305 303 303 303 302
308 307 309 308 309 309 309 309 309 307 307 307 307 305 305 306 306 306 305 305 304 302
308 308 308 308 309 309 309 308 308 308 307 308 307 307 306 307 305 304 305 305 305 302
307 308 308 307 308 309 308 307 307 307 307 307 307 307 307 307 305 304 303 304 302 301
305 306 306 306 307 308 306 305 307 306 306 306 306 295 300 304 306 305 303 302 301 301
305 305 306 307 306 306 306 306 305 306 306 306 306 298 299 298 307 306 305 304 303 302
304 304 305 305 305 305 305 305 305 305 305 305 306 298 298 296 306 307 306 306 305 304
302 302 303 303 303 304 304 304 305 305 305 305 305 298 297 298 303 304 303 305 306 305
301 302 303 303 303 303 304 303 303 301 305 299 305 297 297 298 302 301 301 300 302 291
297 299 302 302 300 299 301 296 297 295 298 302 302 302 296 296 302 301 300 299 295 301
Wind_Speed
10 8 9 11 8 7 7 8 10 7 7 5 6 5 6 4 4 5 4 6 4 2
9 12 10 11 9 8 8 7 10 9 8 7 6 6 7 4 5 6 4 5 5 4
9 11 10 11 10 10 9 9 10 8 9 7 6 6 7 5 5 5 3 5 8 5
8 8 12 10 10 10 11 11 10 9 10 10 8 6 6 6 7 7 5 5 8 8
7 7 11 11 11 10 11 11 11 9 9 10 8 6 6 6 6 8 9 8 8 9
9 7 10 11 10 10 10 10 9 10 9 10 10 9 6 6 7 7 8 9 8 9
11 12 11 9 11 11 10 10 10 10 10 10 10 10 8 7 6 6 7 7 7 6
11 10 9 8 10 11 11 10 10 11 10 9 9 8 10 8 6 7 7 6 7 7
9 9 6 6 8 11 11 9 11 11 11 11 7 11 13 10 9 6 7 6 6 6
10 10 9 6 7 10 11 11 11 11 11 10 10 15 16 14 9 10 9 9 8 7
7 9 8 8 8 9 10 11 11 10 11 11 10 14 16 17 10 8 10 10 10 11
3 6 7 8 8 9 11 9 9 9 11 11 10 16 17 13 10 8 8 9 9 10
4 5 7 8 7 7 9 8 7 7 10 10 11 14 17 15 8 10 7 6 7 11
4 5 5 6 5 5 7 6 6 7 7 9 12 11 17 18 10 9 8 8 6 9
Wind_Direction
171 161 161 171 175 170 162 163 165 163 169 155 147 172 144 145 149 144 154 147 112 101
166 153 163 170 169 169 157 158 160 163 162 144 164 183 142 150 155 157 158 137 125 125
165 153 151 164 170 169 164 166 159 161 156 156 166 177 168 155 150 143 155 141 141 137
163 155 151 159 172 169 165 175 175 169 162 166 162 176 164 166 153 152 157 153 161 151
155 160 149 160 172 167 167 170 171 166 163 167 163 169 171 172 168 158 165 175 170 163
158 166 174 161 167 168 166 168 172 156 171 171 173 170 181 181 170 176 171 174 181 174
170 186 190 162 165 168 165 164 172 170 175 175 174 180 182 188 178 183 177 173 175 176
165 183 185 173 167 168 165 171 178 177 176 177 175 181 183 183 185 182 185 185 171 175
149 177 186 180 163 166 163 170 178 179 177 181 188 175 179 179 189 188 184 185 189 172
160 173 187 179 163 169 181 180 182 185 184 190 188 179 186 189 191 193 198 197 190 197
165 166 171 167 177 181 190 187 182 186 188 191 198 183 189 191 201 195 201 202 199 197
245 179 172 180 187 200 198 191 188 189 189 194 197 189 195 187 201 207 198 202 200 200
250 203 177 186 192 195 202 195 186 188 197 198 203 194 198 191 202 211 212 203 206 202
279 224 180 182 181 182 190 179 181 188 199 199 204 197 198 193 201 206 209 211 212 218